Time,TemperatureF,DewpointF,PressureIn,WindDirection,WindDirectionDegrees,WindSpeedMPH,WindSpeedGustMPH,Humidity,HourlyPrecipIn,Conditions,Clouds,dailyrainin,SoftwareType,DateUTC
2013-02-11 00:00:00,50.5,30.0,29.74,West,270,8.1,8.1,45,0.00,FEW,,0.00,WeatherDisplay:10.37,2013-02-11 06:00:00,
2013-02-11 00:05:00,50.2,29.6,29.74,SW,225,5.1,5.4,45,0.00,RA,,0.00,WeatherDisplay:10.37,2013-02-11 06:05:00,
2013-02-11 00:10:00,50.2,29.6,29.74,SW,225,5.1,5.4,45,0.00,RA,,0.00,WeatherDisplay:10.37,2013-02-11 06:10:00,
2013-02-11 00:15:00,49.1,28.1,29.76,SE,135,9.2,9.2,44,0.00,FEW,,0.00,WeatherDisplay:10.37,2013-02-11 06:15:00,
2013-02-11 00:20:00,48.7,27.8,29.76,WNW,292,12.6,12.6,44,0.00,FEW,,0.00,WeatherDisplay:10.37,2013-02-11 06:20:00,
2013-02-11 00:25:00,48.4,27.4,29.76,SW,225,12.3,12.3,44,0.00,FEW,,0.00,WeatherDisplay:10.37,2013-02-11 06:25:00,
2013-02-11 00:30:00,48.2,27.3,29.76,East,90,10.6,10.6,44,0.00,FEW,,0.00,WeatherDisplay:10.37,2013-02-11 06:30:00,
2013-02-11 00:35:00,47.8,27.0,29.78,WSW,248,5.8,8.1,44,0.00,FEW,,0.00,WeatherDisplay:10.37,2013-02-11 06:35:00,
2013-02-11 00:40:00,47.7,27.3,29.78,WNW,292,7.1,7.1,45,0.00,FEW,,0.00,WeatherDisplay:10.37,2013-02-11 06:40:00,
2013-02-11 00:45:00,47.1,27.4,29.78,WSW,248,5.8,6.5,46,0.00,FEW,,0.00,WeatherDisplay:10.37,2013-02-11 06:45:00,
2013-02-11 00:50:00,46.9,26.7,29.78,WSW,248,9.5,9.5,45,0.00,FEW,,0.00,WeatherDisplay:10.37,2013-02-11 06:50:00,
2013-02-11 00:55:00,46.4,26.7,29.79,SW,225,9.2,9.2,46,0.00,FEW,,0.00,WeatherDisplay:10.37,2013-02-11 06:55:00,
2013-02-11 01:00:00,46.2,26.6,29.79,SW,225,7.3,8.0,46,0.00,FEW,,0.00,WeatherDisplay:10.37,2013-02-11 07:00:00,
2013-02-11 01:05:00,45.7,26.6,29.79,WSW,248,12.6,12.6,47,0.00,FEW,,0.00,WeatherDisplay:10.37,2013-02-11 07:05:00,
2013-02-11 01:10:00,45.7,26.6,29.79,WSW,248,11.7,11.7,47,0.00,FEW,,0.00,WeatherDisplay:10.37,2013-02-11 07:10:00,
2013-02-11 01:15:00,45.5,26.9,29.80,WNW,292,8.1,8.1,48,0.00,FEW,,0.00,WeatherDisplay:10.37,2013-02-11 07:15:00,
2013-02-11 01:20:00,45.1,26.6,29.80,West,270,7.0,7.0,48,0.00,FEW,,0.00,WeatherDisplay:10.37,2013-02-11 07:20:00,
2013-02-11 01:25:00,45.0,26.9,29.80,WSW,248,7.7,7.7,49,0.00,FEW,,0.00,WeatherDisplay:10.37,2013-02-11 07:25:00,
2013-02-11 01:30:00,44.8,26.3,29.80,SW,225,4.0,6.3,48,0.00,FEW,,0.00,WeatherDisplay:10.37,2013-02-11 07:30:00,
2013-02-11 01:35:00,44.2,25.8,29.80,WSW,248,11.5,11.5,48,0.00,FEW,,0.00,WeatherDisplay:10.37,2013-02-11 07:35:00,
2013-02-11 01:40:00,44.1,25.6,29.80,West,270,8.1,8.1,48,0.00,FEW,,0.00,WeatherDisplay:10.37,2013-02-11 07:40:00,
2013-02-11 01:45:00,43.7,25.3,29.80,SW,225,10.5,10.5,48,0.00,FEW,,0.00,WeatherDisplay:10.37,2013-02-11 07:45:00,
2013-02-11 01:50:00,43.5,25.1,29.80,SW,225,7.0,7.6,48,0.00,FEW,,0.00,WeatherDisplay:10.37,2013-02-11 07:50:00,
2013-02-11 01:55:00,43.3,24.9,29.83,WSW,248,12.6,12.6,48,0.00,FEW,,0.00,WeatherDisplay:10.37,2013-02-11 07:55:00,
2013-02-11 02:00:00,43.3,25.4,29.83,West,270,6.9,7.4,49,0.00,FEW,,0.00,WeatherDisplay:10.37,2013-02-11 08:00:00,
2013-02-11 02:05:00,43.0,25.1,29.83,SW,225,9.2,9.2,49,0.00,FEW,,0.00,WeatherDisplay:10.37,2013-02-11 08:05:00,
2013-02-11 02:10:00,42.8,24.9,29.83,WSW,248,12.6,12.6,49,0.00,FEW,,0.00,WeatherDisplay:10.37,2013-02-11 08:10:00,
2013-02-11 02:15:00,42.8,24.9,29.83,WSW,248,5.8,6.2,49,0.00,FEW,,0.00,WeatherDisplay:10.37,2013-02-11 08:15:00,
2013-02-11 02:20:00,42.6,24.8,29.83,WSW,248,8.1,8.1,49,0.00,FEW,,0.00,WeatherDisplay:10.37,2013-02-11 08:20:00,
2013-02-11 02:25:00,42.6,24.8,29.83,WSW,248,10.3,10.3,49,0.00,FEW,,0.00,WeatherDisplay:10.37,2013-02-11 08:25:00,
2013-02-11 02:30:00,42.4,24.6,29.83,SW,225,7.0,7.0,49,0.00,FEW,,0.00,WeatherDisplay:10.37,2013-02-11 08:30:00,
2013-02-11 02:35:00,42.4,25.1,29.85,WSW,248,5.5,5.8,50,0.00,FEW,,0.00,WeatherDisplay:10.37,2013-02-11 08:35:00,
2013-02-11 02:40:00,42.3,24.9,29.85,WSW,248,8.0,8.0,50,0.00,FEW,,0.00,WeatherDisplay:10.37,2013-02-11 08:40:00,
2013-02-11 02:45:00,42.3,24.9,29.85,SW,225,6.6,6.6,50,0.00,FEW,,0.00,WeatherDisplay:10.37,2013-02-11 08:45:00,
2013-02-11 02:50:00,42.3,24.4,29.85,WSW,248,12.8,12.8,49,0.00,FEW,,0.00,WeatherDisplay:10.37,2013-02-11 08:50:00,
2013-02-11 02:55:00,42.1,24.8,29.86,WSW,248,9.2,9.2,50,0.00,FEW,,0.00,WeatherDisplay:10.37,2013-02-11 08:55:00,
2013-02-11 03:00:00,42.1,24.8,29.86,WSW,248,6.9,7.5,50,0.00,FEW,,0.00,WeatherDisplay:10.37,2013-02-11 09:00:00,
2013-02-11 03:05:00,42.1,24.3,29.86,West,270,5.8,7.2,49,0.00,FEW,,0.00,WeatherDisplay:10.37,2013-02-11 09:05:00,
2013-02-11 03:10:00,42.1,24.3,29.86,West,270,5.8,7.2,49,0.00,FEW,,0.00,WeatherDisplay:10.37,2013-02-11 09:10:00,
2013-02-11 03:15:00,41.7,23.9,29.86,WSW,248,12.5,12.5,49,0.00,FEW,,0.00,WeatherDisplay:10.37,2013-02-11 09:15:00,
2013-02-11 03:20:00,41.5,23.8,29.86,ENE,68,5.9,7.2,49,0.00,FEW,,0.00,WeatherDisplay:10.37,2013-02-11 09:20:00,
2013-02-11 03:25:00,41.4,23.6,29.86,West,270,8.1,8.1,49,0.00,FEW,,0.00,WeatherDisplay:10.37,2013-02-11 09:25:00,
2013-02-11 03:30:00,41.4,23.1,29.86,West,270,6.9,6.9,48,0.00,FEW,,0.00,WeatherDisplay:10.37,2013-02-11 09:30:00,
2013-02-11 03:35:00,41.2,23.0,29.86,SSW,202,6.9,6.9,48,0.00,FEW,,0.00,WeatherDisplay:10.37,2013-02-11 09:35:00,
2013-02-11 03:40:00,41.2,23.0,29.86,South,180,7.0,7.0,48,0.00,FEW,,0.00,WeatherDisplay:10.37,2013-02-11 09:40:00,
2013-02-11 03:45:00,41.2,23.0,29.86,WSW,248,9.2,9.2,48,0.00,FEW,,0.00,WeatherDisplay:10.37,2013-02-11 09:45:00,
2013-02-11 03:50:00,40.8,22.6,29.86,WSW,248,14.9,14.9,48,0.00,FEW,,0.00,WeatherDisplay:10.37,2013-02-11 09:50:00,
2013-02-11 03:55:00,40.8,22.6,29.87,WSW,248,11.6,11.6,48,0.00,FEW,,0.00,WeatherDisplay:10.37,2013-02-11 09:55:00,
2013-02-11 04:00:00,40.6,22.5,29.87,SW,225,8.3,8.3,48,0.00,FEW,,0.00,WeatherDisplay:10.37,2013-02-11 10:00:00,
2013-02-11 04:05:00,40.6,22.9,29.87,WNW,292,4.8,5.6,49,0.00,FEW,,0.00,WeatherDisplay:10.37,2013-02-11 10:05:00,
2013-02-11 04:10:00,40.5,22.8,29.87,WSW,248,7.1,7.1,49,0.00,FEW,,0.00,WeatherDisplay:10.37,2013-02-11 10:10:00,
2013-02-11 04:15:00,40.5,22.8,29.86,NW,315,10.3,10.3,49,0.00,FEW,,0.00,WeatherDisplay:10.37,2013-02-11 10:15:00,
2013-02-11 04:20:00,40.3,23.1,29.86,WSW,248,6.9,6.9,50,0.00,FEW,,0.00,WeatherDisplay:10.37,2013-02-11 10:20:00,
2013-02-11 04:25:00,40.3,23.1,29.86,WSW,248,6.9,6.9,50,0.00,FEW,,0.00,WeatherDisplay:10.37,2013-02-11 10:25:00,
2013-02-11 04:30:00,40.1,22.9,29.86,SW,225,3.4,4.8,50,0.00,FEW,,0.00,WeatherDisplay:10.37,2013-02-11 10:30:00,
2013-02-11 04:35:00,40.1,23.4,29.88,WSW,248,7.3,7.3,51,0.00,FEW,,0.00,WeatherDisplay:10.37,2013-02-11 10:35:00,
2013-02-11 04:40:00,39.9,23.2,29.88,WNW,292,5.1,5.1,51,0.00,FEW,,0.00,WeatherDisplay:10.37,2013-02-11 10:40:00,
2013-02-11 04:45:00,39.9,23.2,29.88,WSW,248,9.2,9.2,51,0.00,FEW,,0.00,WeatherDisplay:10.37,2013-02-11 10:45:00,
2013-02-11 04:50:00,39.9,23.2,29.88,SW,225,9.5,9.5,51,0.00,FEW,,0.00,WeatherDisplay:10.37,2013-02-11 10:50:00,
2013-02-11 04:55:00,39.9,23.2,29.86,SSW,202,9.2,9.2,51,0.00,FEW,,0.00,WeatherDisplay:10.37,2013-02-11 10:55:00,
2013-02-11 05:00:00,39.9,23.2,29.86,WNW,292,6.9,6.9,51,0.00,FEW,,0.00,WeatherDisplay:10.37,2013-02-11 11:00:00,
2013-02-11 05:05:00,39.9,23.2,29.86,NW,315,6.8,6.8,51,0.00,FEW,,0.00,WeatherDisplay:10.37,2013-02-11 11:05:00,
2013-02-11 05:10:00,39.7,23.1,29.86,SW,225,8.1,8.1,51,0.00,FEW,,0.00,WeatherDisplay:10.37,2013-02-11 11:10:00,
2013-02-11 05:15:00,39.7,23.1,29.88,SW,225,4.8,5.4,51,0.00,FEW,,0.00,WeatherDisplay:10.37,2013-02-11 11:15:00,
2013-02-11 05:20:00,39.7,23.5,29.88,SW,225,4.6,4.7,52,0.00,FEW,,0.00,WeatherDisplay:10.37,2013-02-11 11:20:00,
2013-02-11 05:25:00,39.7,23.5,29.88,WNW,292,5.8,5.8,52,0.00,FEW,,0.00,WeatherDisplay:10.37,2013-02-11 11:25:00,
2013-02-11 05:30:00,39.7,23.5,29.88,SW,225,8.1,8.1,52,0.00,FEW,,0.00,WeatherDisplay:10.37,2013-02-11 11:30:00,
2013-02-11 05:35:00,39.7,23.5,29.90,NE,45,6.7,6.7,52,0.00,FEW,,0.00,WeatherDisplay:10.37,2013-02-11 11:35:00,
2013-02-11 05:40:00,39.7,23.5,29.90,SW,225,4.9,5.5,52,0.00,FEW,,0.00,WeatherDisplay:10.37,2013-02-11 11:40:00,
2013-02-11 05:45:00,39.7,23.5,29.90,WSW,248,12.8,12.8,52,0.00,FEW,,0.00,WeatherDisplay:10.37,2013-02-11 11:45:00,
2013-02-11 05:50:00,39.7,23.5,29.90,WSW,248,4.6,5.6,52,0.00,FEW,,0.00,WeatherDisplay:10.37,2013-02-11 11:50:00,
2013-02-11 05:55:00,39.7,24.0,29.90,SE,135,4.8,5.2,53,0.00,FEW,,0.00,WeatherDisplay:10.37,2013-02-11 11:55:00,
2013-02-11 06:00:00,39.7,24.0,29.90,WSW,248,9.4,9.4,53,0.00,FEW,,0.00,WeatherDisplay:10.37,2013-02-11 12:00:00,
2013-02-11 06:05:00,39.7,24.0,29.90,WSW,248,10.3,10.3,53,0.00,FEW,,0.00,WeatherDisplay:10.37,2013-02-11 12:05:00,
2013-02-11 06:10:00,39.7,24.0,29.90,WSW,248,10.3,10.3,53,0.00,FEW,,0.00,WeatherDisplay:10.37,2013-02-11 12:10:00,
2013-02-11 06:15:00,39.7,24.0,29.91,SW,225,8.1,8.1,53,0.00,FEW,,0.00,WeatherDisplay:10.37,2013-02-11 12:15:00,
2013-02-11 06:20:00,39.9,24.2,29.91,WSW,248,8.1,8.1,53,0.00,FEW,,0.00,WeatherDisplay:10.37,2013-02-11 12:20:00,
2013-02-11 06:25:00,39.7,24.0,29.91,WSW,248,7.0,7.0,53,0.00,FEW,,0.00,WeatherDisplay:10.37,2013-02-11 12:25:00,
2013-02-11 06:30:00,39.7,24.4,29.91,WSW,248,8.1,8.1,54,0.00,FEW,,0.00,WeatherDisplay:10.37,2013-02-11 12:30:00,
2013-02-11 06:35:00,39.7,24.4,29.91,SW,225,10.1,10.1,54,0.00,FEW,,0.00,WeatherDisplay:10.37,2013-02-11 12:35:00,
2013-02-11 06:40:00,39.7,24.4,29.91,SSW,202,6.9,6.9,54,0.00,FEW,,0.00,WeatherDisplay:10.37,2013-02-11 12:40:00,
2013-02-11 06:45:00,39.6,23.8,29.91,WSW,248,15.0,15.0,53,0.00,FEW,,0.00,WeatherDisplay:10.37,2013-02-11 12:45:00,
2013-02-11 06:50:00,39.7,24.0,29.91,WSW,248,11.5,11.5,53,0.00,FEW,,0.00,WeatherDisplay:10.37,2013-02-11 12:50:00,
2013-02-11 06:55:00,39.7,24.0,29.93,WSW,248,8.8,8.8,53,0.00,FEW,,0.00,WeatherDisplay:10.37,2013-02-11 12:55:00,
2013-02-11 07:00:00,39.4,23.7,29.93,WSW,248,8.3,8.3,53,0.00,SCT,,0.00,WeatherDisplay:10.37,2013-02-11 13:00:00,
2013-02-11 07:05:00,39.4,23.7,29.93,WNW,292,8.1,8.1,53,0.00,SCT,,0.00,WeatherDisplay:10.37,2013-02-11 13:05:00,
2013-02-11 07:10:00,39.4,23.7,29.93,SW,225,5.9,5.9,53,0.00,SCT,,0.00,WeatherDisplay:10.37,2013-02-11 13:10:00,
2013-02-11 07:15:00,39.2,23.5,29.94,SW,225,6.5,6.5,53,0.00,SCT,,0.00,WeatherDisplay:10.37,2013-02-11 13:15:00,
2013-02-11 07:20:00,39.2,23.5,29.94,SW,225,8.1,8.1,53,0.00,SCT,,0.00,WeatherDisplay:10.37,2013-02-11 13:20:00,
2013-02-11 07:25:00,39.2,23.5,29.94,WSW,248,10.4,10.4,53,0.00,SCT,,0.00,WeatherDisplay:10.37,2013-02-11 13:25:00,
2013-02-11 07:30:00,39.2,23.5,29.94,West,270,4.6,4.6,53,0.00,SCT,,0.00,WeatherDisplay:10.37,2013-02-11 13:30:00,
2013-02-11 07:35:00,39.4,23.7,29.96,SW,225,5.8,5.8,53,0.00,SCT,,0.00,WeatherDisplay:10.37,2013-02-11 13:35:00,
2013-02-11 07:40:00,39.4,23.7,29.96,WSW,248,6.3,6.3,53,0.00,SCT,,0.00,WeatherDisplay:10.37,2013-02-11 13:40:00,
2013-02-11 07:45:00,39.6,24.3,29.96,SW,225,6.0,6.0,54,0.00,SCT,,0.00,WeatherDisplay:10.37,2013-02-11 13:45:00,
2013-02-11 07:50:00,39.7,24.4,29.96,SW,225,5.0,5.0,54,0.00,SCT,,0.00,WeatherDisplay:10.37,2013-02-11 13:50:00,
2013-02-11 07:55:00,39.6,24.3,29.97,West,270,5.8,5.8,54,0.00,SCT,,0.00,WeatherDisplay:10.37,2013-02-11 13:55:00,
2013-02-11 08:00:00,39.6,24.3,29.97,SW,225,4.6,4.6,54,0.00,SCT,,0.00,WeatherDisplay:10.37,2013-02-11 14:00:00,
2013-02-11 08:05:00,39.9,24.6,29.97,SW,225,8.1,8.1,54,0.00,SCT,,0.00,WeatherDisplay:10.37,2013-02-11 14:05:00,
2013-02-11 08:10:00,39.7,24.4,29.97,SSE,158,3.4,4.5,54,0.00,SCT,,0.00,WeatherDisplay:10.37,2013-02-11 14:10:00,
2013-02-11 08:15:00,40.1,24.8,29.98,SW,225,6.2,6.2,54,0.00,SCT,,0.00,WeatherDisplay:10.37,2013-02-11 14:15:00,
2013-02-11 08:20:00,39.9,24.6,29.98,WSW,248,9.2,9.2,54,0.00,SCT,,0.00,WeatherDisplay:10.37,2013-02-11 14:20:00,
2013-02-11 08:25:00,40.5,25.1,29.98,SSW,202,5.2,5.3,54,0.00,SCT,,0.00,WeatherDisplay:10.37,2013-02-11 14:25:00,
2013-02-11 08:30:00,40.6,25.7,29.98,WSW,248,4.0,4.5,55,0.00,SCT,,0.00,WeatherDisplay:10.37,2013-02-11 14:30:00,
2013-02-11 08:35:00,40.6,25.3,29.99,WSW,248,11.0,11.0,54,0.00,SCT,,0.00,WeatherDisplay:10.37,2013-02-11 14:35:00,
2013-02-11 08:40:00,40.8,25.4,29.99,WSW,248,9.2,9.2,54,0.00,SCT,,0.00,WeatherDisplay:10.37,2013-02-11 14:40:00,
2013-02-11 08:45:00,41.2,25.8,29.99,WSW,248,5.8,5.8,54,0.00,SCT,,0.00,WeatherDisplay:10.37,2013-02-11 14:45:00,
2013-02-11 08:50:00,41.2,25.3,29.99,SE,135,8.1,8.1,53,0.00,SCT,,0.00,WeatherDisplay:10.37,2013-02-11 14:50:00,
2013-02-11 08:55:00,40.8,25.0,29.99,WSW,248,10.3,10.3,53,0.00,SCT,,0.00,WeatherDisplay:10.37,2013-02-11 14:55:00,
2013-02-11 09:00:00,41.2,25.3,29.99,WSW,248,10.6,10.6,53,0.00,FEW,,0.00,WeatherDisplay:10.37,2013-02-11 15:00:00,
2013-02-11 09:05:00,41.4,25.5,29.99,WSW,248,8.1,8.1,53,0.00,FEW,,0.00,WeatherDisplay:10.37,2013-02-11 15:05:00,
2013-02-11 09:10:00,41.7,25.8,29.99,SW,225,7.1,7.1,53,0.00,FEW,,0.00,WeatherDisplay:10.37,2013-02-11 15:10:00,
2013-02-11 09:15:00,41.9,25.1,29.99,WNW,292,9.2,9.2,51,0.00,FEW,,0.00,WeatherDisplay:10.37,2013-02-11 15:15:00,
2013-02-11 09:20:00,42.1,25.2,29.99,SW,225,11.7,11.7,51,0.00,FEW,,0.00,WeatherDisplay:10.37,2013-02-11 15:20:00,
2013-02-11 09:25:00,42.1,24.8,29.99,SW,225,8.8,8.8,50,0.00,FEW,,0.00,WeatherDisplay:10.37,2013-02-11 15:25:00,
2013-02-11 09:30:00,42.3,24.4,29.99,SSW,202,7.1,7.4,49,0.00,FEW,,0.00,WeatherDisplay:10.37,2013-02-11 15:30:00,
2013-02-11 09:35:00,42.6,25.3,30.00,West,270,5.8,5.8,50,0.00,FEW,,0.00,WeatherDisplay:10.37,2013-02-11 15:35:00,
2013-02-11 09:40:00,42.8,25.4,30.00,WNW,292,3.7,4.7,50,0.00,FEW,,0.00,WeatherDisplay:10.37,2013-02-11 15:40:00,
2013-02-11 09:45:00,43.3,24.9,30.00,SW,225,15.1,15.1,48,0.00,FEW,,0.00,WeatherDisplay:10.37,2013-02-11 15:45:00,
2013-02-11 09:50:00,43.2,24.8,30.00,SW,225,5.8,6.6,48,0.00,FEW,,0.00,WeatherDisplay:10.37,2013-02-11 15:50:00,
2013-02-11 09:55:00,43.7,25.3,30.00,WSW,248,9.2,9.2,48,0.00,FEW,,0.00,WeatherDisplay:10.37,2013-02-11 15:55:00,
2013-02-11 10:00:00,44.1,25.6,30.00,WSW,248,6.2,6.2,48,0.00,SCT,,0.00,WeatherDisplay:10.37,2013-02-11 16:00:00,
2013-02-11 10:05:00,44.2,25.3,30.00,West,270,8.1,8.1,47,0.00,SCT,,0.00,WeatherDisplay:10.37,2013-02-11 16:05:00,
2013-02-11 10:10:00,44.4,25.4,30.00,WSW,248,9.2,9.2,47,0.00,SCT,,0.00,WeatherDisplay:10.37,2013-02-11 16:10:00,
2013-02-11 10:15:00,44.8,25.2,30.01,WSW,248,9.2,9.2,46,0.00,SCT,,0.00,WeatherDisplay:10.37,2013-02-11 16:15:00,
2013-02-11 10:20:00,44.8,25.2,30.01,WSW,248,7.4,7.4,46,0.00,SCT,,0.00,WeatherDisplay:10.37,2013-02-11 16:20:00,
2013-02-11 10:25:00,45.5,25.9,30.01,SW,225,6.5,6.5,46,0.00,SCT,,0.00,WeatherDisplay:10.37,2013-02-11 16:25:00,
2013-02-11 10:30:00,45.9,25.7,30.01,NW,315,5.8,5.8,45,0.00,SCT,,0.00,WeatherDisplay:10.37,2013-02-11 16:30:00,
2013-02-11 10:35:00,46.6,25.8,30.01,WSW,248,4.7,4.7,44,0.00,SCT,,0.00,WeatherDisplay:10.37,2013-02-11 16:35:00,
2013-02-11 10:40:00,47.1,26.3,30.01,WSW,248,5.8,5.8,44,0.00,SCT,,0.00,WeatherDisplay:10.37,2013-02-11 16:40:00,
2013-02-11 10:45:00,46.9,25.0,30.01,WSW,248,6.5,6.5,42,0.00,SCT,,0.00,WeatherDisplay:10.37,2013-02-11 16:45:00,
2013-02-11 10:50:00,46.6,24.7,30.01,SW,225,7.2,7.2,42,0.00,SCT,,0.00,WeatherDisplay:10.37,2013-02-11 16:50:00,
2013-02-11 10:55:00,46.6,25.3,30.02,WNW,292,8.3,8.3,43,0.00,SCT,,0.00,WeatherDisplay:10.37,2013-02-11 16:55:00,
2013-02-11 11:00:00,47.1,25.2,30.02,ESE,112,10.3,10.3,42,0.00,SCT,,0.00,WeatherDisplay:10.37,2013-02-11 17:00:00,
2013-02-11 11:05:00,47.5,25.5,30.02,ENE,68,3.9,5.1,42,0.00,SCT,,0.00,WeatherDisplay:10.37,2013-02-11 17:05:00,
2013-02-11 11:10:00,47.8,25.2,30.02,WNW,292,6.1,6.1,41,0.00,SCT,,0.00,WeatherDisplay:10.37,2013-02-11 17:10:00,
2013-02-11 11:15:00,48.0,24.8,30.03,WSW,248,13.3,13.3,40,0.00,SCT,,0.00,WeatherDisplay:10.37,2013-02-11 17:15:00,
2013-02-11 11:20:00,48.0,24.8,30.03,NW,315,6.9,6.9,40,0.00,SCT,,0.00,WeatherDisplay:10.37,2013-02-11 17:20:00,
2013-02-11 11:25:00,48.6,26.5,30.03,SSW,202,6.9,6.9,42,0.00,SCT,,0.00,WeatherDisplay:10.37,2013-02-11 17:25:00,
2013-02-11 11:30:00,48.9,25.6,30.03,WNW,292,6.1,6.1,40,0.00,SCT,,0.00,WeatherDisplay:10.37,2013-02-11 17:30:00,
2013-02-11 11:35:00,49.5,24.9,30.03,SW,225,7.1,7.1,38,0.00,SCT,,0.00,WeatherDisplay:10.37,2013-02-11 17:35:00,
2013-02-11 11:40:00,49.3,25.3,30.03,WNW,292,5.8,5.8,39,0.00,SCT,,0.00,WeatherDisplay:10.37,2013-02-11 17:40:00,
2013-02-11 11:45:00,49.5,25.5,30.03,SW,225,6.1,6.1,39,0.00,SCT,,0.00,WeatherDisplay:10.37,2013-02-11 17:45:00,
2013-02-11 11:50:00,49.3,24.7,30.03,West,270,6.9,6.9,38,0.00,SCT,,0.00,WeatherDisplay:10.37,2013-02-11 17:50:00,
2013-02-11 11:55:00,49.5,24.9,30.02,WSW,248,14.4,14.4,38,0.00,SCT,,0.00,WeatherDisplay:10.37,2013-02-11 17:55:00,
2013-02-11 12:00:00,49.3,24.1,30.02,WNW,292,8.4,8.4,37,0.00,FEW,,0.00,WeatherDisplay:10.37,2013-02-11 18:00:00,
2013-02-11 12:05:00,48.9,23.8,30.02,SW,225,10.6,10.6,37,0.00,FEW,,0.00,WeatherDisplay:10.37,2013-02-11 18:05:00,
2013-02-11 12:10:00,49.1,23.3,30.02,SW,225,10.6,10.6,36,0.00,FEW,,0.00,WeatherDisplay:10.37,2013-02-11 18:10:00,
2013-02-11 12:15:00,49.3,24.1,30.02,WSW,248,7.2,7.2,37,0.00,FEW,,0.00,WeatherDisplay:10.37,2013-02-11 18:15:00,
2013-02-11 12:20:00,49.3,24.1,30.02,WSW,248,4.6,5.4,37,0.00,FEW,,0.00,WeatherDisplay:10.37,2013-02-11 18:20:00,
2013-02-11 12:25:00,50.0,24.7,30.02,NW,315,7.1,7.1,37,0.00,FEW,,0.00,WeatherDisplay:10.37,2013-02-11 18:25:00,
2013-02-11 12:30:00,50.5,25.2,30.02,WSW,248,9.2,9.2,37,0.00,FEW,,0.00,WeatherDisplay:10.37,2013-02-11 18:30:00,
2013-02-11 12:35:00,50.7,24.7,30.02,NW,315,6.9,6.9,36,0.00,FEW,,0.00,WeatherDisplay:10.37,2013-02-11 18:35:00,
2013-02-11 12:40:00,50.9,25.5,30.02,WSW,248,3.9,4.0,37,0.00,FEW,,0.00,WeatherDisplay:10.37,2013-02-11 18:40:00,
2013-02-11 12:45:00,51.1,25.0,30.02,WSW,248,5.8,5.8,36,0.00,FEW,,0.00,WeatherDisplay:10.37,2013-02-11 18:45:00,
2013-02-11 12:50:00,51.4,24.7,30.02,WNW,292,6.3,6.3,35,0.00,FEW,,0.00,WeatherDisplay:10.37,2013-02-11 18:50:00,
2013-02-11 12:55:00,51.3,23.8,30.03,WNW,292,10.0,10.0,34,0.00,FEW,,0.00,WeatherDisplay:10.37,2013-02-11 18:55:00,
2013-02-11 13:00:00,51.6,24.1,30.03,WSW,248,8.1,8.1,34,0.00,SCT,,0.00,WeatherDisplay:10.37,2013-02-11 19:00:00,
2013-02-11 13:05:00,52.0,25.1,30.03,SW,225,8.9,8.9,35,0.00,SCT,,0.00,WeatherDisplay:10.37,2013-02-11 19:05:00,
2013-02-11 13:10:00,51.6,24.8,30.03,SW,225,5.8,5.8,35,0.00,SCT,,0.00,WeatherDisplay:10.37,2013-02-11 19:10:00,
2013-02-11 13:15:00,50.7,24.7,30.02,SE,135,9.3,9.3,36,0.00,SCT,,0.00,WeatherDisplay:10.37,2013-02-11 19:15:00,
2013-02-11 13:20:00,51.1,25.0,30.02,WNW,292,4.6,5.1,36,0.00,SCT,,0.00,WeatherDisplay:10.37,2013-02-11 19:20:00,
2013-02-11 13:25:00,51.4,24.7,30.02,WSW,248,12.2,12.2,35,0.00,SCT,,0.00,WeatherDisplay:10.37,2013-02-11 19:25:00,
2013-02-11 13:30:00,50.9,23.5,30.02,WSW,248,10.3,10.3,34,0.00,SCT,,0.00,WeatherDisplay:10.37,2013-02-11 19:30:00,
2013-02-11 13:35:00,50.9,23.5,30.02,SW,225,11.5,11.5,34,0.00,SCT,,0.00,WeatherDisplay:10.37,2013-02-11 19:35:00,
2013-02-11 13:40:00,50.9,24.2,30.02,West,270,6.9,6.9,35,0.00,SCT,,0.00,WeatherDisplay:10.37,2013-02-11 19:40:00,
2013-02-11 13:45:00,51.6,24.8,30.02,WSW,248,8.7,8.7,35,0.00,SCT,,0.00,WeatherDisplay:10.37,2013-02-11 19:45:00,
2013-02-11 13:50:00,51.4,24.0,30.02,SW,225,3.4,4.7,34,0.00,SCT,,0.00,WeatherDisplay:10.37,2013-02-11 19:50:00,
2013-02-11 13:55:00,51.4,24.0,30.02,SW,225,12.2,12.2,34,0.00,SCT,,0.00,WeatherDisplay:10.37,2013-02-11 19:55:00,
2013-02-11 14:00:00,51.3,23.8,30.02,WSW,248,5.8,5.8,34,0.00,FEW,,0.00,WeatherDisplay:10.37,2013-02-11 20:00:00,
2013-02-11 14:05:00,51.4,24.7,30.02,WSW,248,18.4,18.4,35,0.00,FEW,,0.00,WeatherDisplay:10.37,2013-02-11 20:05:00,
2013-02-11 14:10:00,51.6,24.8,30.02,SW,225,4.9,5.7,35,0.00,FEW,,0.00,WeatherDisplay:10.37,2013-02-11 20:10:00,
2013-02-11 14:15:00,52.0,24.4,30.02,SW,225,4.1,4.8,34,0.00,FEW,,0.00,WeatherDisplay:10.37,2013-02-11 20:15:00,
2013-02-11 14:20:00,52.2,24.6,30.02,WSW,248,4.7,4.7,34,0.00,FEW,,0.00,WeatherDisplay:10.37,2013-02-11 20:20:00,
2013-02-11 14:25:00,52.0,23.7,30.02,SW,225,10.3,10.3,33,0.00,FEW,,0.00,WeatherDisplay:10.37,2013-02-11 20:25:00,
2013-02-11 14:30:00,51.6,24.1,30.02,SW,225,6.9,6.9,34,0.00,FEW,,0.00,WeatherDisplay:10.37,2013-02-11 20:30:00,
2013-02-11 14:35:00,52.0,23.7,30.02,West,270,6.9,6.9,33,0.00,FEW,,0.00,WeatherDisplay:10.37,2013-02-11 20:35:00,
2013-02-11 14:40:00,52.2,23.9,30.02,SSW,202,4.6,5.0,33,0.00,FEW,,0.00,WeatherDisplay:10.37,2013-02-11 20:40:00,
2013-02-11 14:45:00,52.7,24.4,30.02,SW,225,7.8,7.8,33,0.00,FEW,,0.00,WeatherDisplay:10.37,2013-02-11 20:45:00,
2013-02-11 14:50:00,52.7,24.4,30.02,SE,135,3.4,4.7,33,0.00,FEW,,0.00,WeatherDisplay:10.37,2013-02-11 20:50:00,
2013-02-11 14:55:00,52.9,23.8,30.02,South,180,6.3,6.3,32,0.00,FEW,,0.00,WeatherDisplay:10.37,2013-02-11 20:55:00,
2013-02-11 15:00:00,52.7,23.6,30.02,South,180,13.8,13.8,32,0.00,SCT,,0.00,WeatherDisplay:10.37,2013-02-11 21:00:00,
2013-02-11 15:05:00,52.7,23.6,30.02,WSW,248,6.9,6.9,32,0.00,SCT,,0.00,WeatherDisplay:10.37,2013-02-11 21:05:00,
2013-02-11 15:10:00,52.5,22.7,30.02,SW,225,9.5,9.5,31,0.00,SCT,,0.00,WeatherDisplay:10.37,2013-02-11 21:10:00,
2013-02-11 15:15:00,52.7,24.4,30.03,WSW,248,6.0,6.0,33,0.00,SCT,,0.00,WeatherDisplay:10.37,2013-02-11 21:15:00,
2013-02-11 15:20:00,52.7,23.6,30.03,WNW,292,10.4,10.4,32,0.00,SCT,,0.00,WeatherDisplay:10.37,2013-02-11 21:20:00,
2013-02-11 15:25:00,52.7,23.6,30.03,NW,315,4.6,5.4,32,0.00,SCT,,0.00,WeatherDisplay:10.37,2013-02-11 21:25:00,
2013-02-11 15:30:00,52.7,23.6,30.03,NW,315,4.6,5.6,32,0.00,SCT,,0.00,WeatherDisplay:10.37,2013-02-11 21:30:00,
2013-02-11 15:35:00,53.1,23.9,30.03,WSW,248,8.1,8.1,32,0.00,SCT,,0.00,WeatherDisplay:10.37,2013-02-11 21:35:00,
2013-02-11 15:40:00,53.1,23.9,30.03,SW,225,6.9,6.9,32,0.00,SCT,,0.00,WeatherDisplay:10.37,2013-02-11 21:40:00,
2013-02-11 15:45:00,53.1,23.9,30.03,SSW,202,12.6,12.6,32,0.00,SCT,,0.00,WeatherDisplay:10.37,2013-02-11 21:45:00,
2013-02-11 15:50:00,52.9,23.8,30.03,WSW,248,4.6,5.1,32,0.00,SCT,,0.00,WeatherDisplay:10.37,2013-02-11 21:50:00,
2013-02-11 15:55:00,53.1,23.2,30.03,WNW,292,8.4,8.4,31,0.00,SCT,,0.00,WeatherDisplay:10.37,2013-02-11 21:55:00,
2013-02-11 16:00:00,52.7,22.9,30.03,WSW,248,4.9,5.1,31,0.00,CLR,,0.00,WeatherDisplay:10.37,2013-02-11 22:00:00,
2013-02-11 16:05:00,52.7,22.9,30.03,WSW,248,5.8,5.8,31,0.00,CLR,,0.00,WeatherDisplay:10.37,2013-02-11 22:05:00,
2013-02-11 16:10:00,52.7,22.9,30.03,WSW,248,5.1,5.1,31,0.00,CLR,,0.00,WeatherDisplay:10.37,2013-02-11 22:10:00,
2013-02-11 16:15:00,52.3,22.6,30.03,SSW,202,4.6,4.9,31,0.00,CLR,,0.00,WeatherDisplay:10.37,2013-02-11 22:15:00,
2013-02-11 16:20:00,52.7,22.9,30.03,SW,225,8.1,8.1,31,0.00,CLR,,0.00,WeatherDisplay:10.37,2013-02-11 22:20:00,
2013-02-11 16:25:00,52.2,21.6,30.03,SW,225,5.8,5.8,30,0.00,CLR,,0.00,WeatherDisplay:10.37,2013-02-11 22:25:00,
2013-02-11 16:30:00,52.5,22.7,30.03,SW,225,3.4,3.9,31,0.00,CLR,,0.00,WeatherDisplay:10.37,2013-02-11 22:30:00,
2013-02-11 16:35:00,52.3,21.8,30.04,SSW,202,5.8,5.8,30,0.00,CLR,,0.00,WeatherDisplay:10.37,2013-02-11 22:35:00,
2013-02-11 16:40:00,52.3,21.8,30.04,WSW,248,3.9,4.2,30,0.00,CLR,,0.00,WeatherDisplay:10.37,2013-02-11 22:40:00,
2013-02-11 16:45:00,52.5,21.9,30.04,SW,225,6.5,6.5,30,0.00,CLR,,0.00,WeatherDisplay:10.37,2013-02-11 22:45:00,
2013-02-11 16:50:00,52.7,22.1,30.04,West,270,3.4,3.8,30,0.00,CLR,,0.00,WeatherDisplay:10.37,2013-02-11 22:50:00,
2013-02-11 16:55:00,52.7,22.9,30.03,WNW,292,5.8,5.8,31,0.00,CLR,,0.00,WeatherDisplay:10.37,2013-02-11 22:55:00,
2013-02-11 17:00:00,52.3,21.8,30.03,WSW,248,5.0,5.0,30,0.00,CLR,,0.00,WeatherDisplay:10.37,2013-02-11 23:00:00,
2013-02-11 17:05:00,52.0,22.2,30.03,WSW,248,5.8,5.8,31,0.00,CLR,,0.00,WeatherDisplay:10.37,2013-02-11 23:05:00,
2013-02-11 17:10:00,51.6,21.2,30.03,SW,225,5.8,5.8,30,0.00,CLR,,0.00,WeatherDisplay:10.37,2013-02-11 23:10:00,
2013-02-11 17:15:00,51.3,21.6,30.03,WSW,248,5.8,5.8,31,0.00,CLR,,0.00,WeatherDisplay:10.37,2013-02-11 23:15:00,
2013-02-11 17:20:00,51.3,21.6,30.03,WSW,248,3.6,3.6,31,0.00,CLR,,0.00,WeatherDisplay:10.37,2013-02-11 23:20:00,
2013-02-11 17:25:00,50.9,21.3,30.03,WSW,248,3.7,3.7,31,0.00,CLR,,0.00,WeatherDisplay:10.37,2013-02-11 23:25:00,
2013-02-11 17:30:00,50.7,21.1,30.03,SSW,202,3.4,3.4,31,0.00,CLR,,0.00,WeatherDisplay:10.37,2013-02-11 23:30:00,
2013-02-11 17:35:00,50.4,21.6,30.03,NE,45,5.5,5.5,32,0.00,CLR,,0.00,WeatherDisplay:10.37,2013-02-11 23:35:00,
2013-02-11 17:40:00,50.0,21.3,30.03,WSW,248,3.4,3.4,32,0.00,CLR,,0.00,WeatherDisplay:10.37,2013-02-11 23:40:00,
2013-02-11 17:45:00,49.8,21.1,30.03,SSW,202,5.8,5.8,32,0.00,CLR,,0.00,WeatherDisplay:10.37,2013-02-11 23:45:00,
2013-02-11 17:50:00,49.6,20.9,30.03,SW,225,5.1,5.1,32,0.00,CLR,,0.00,WeatherDisplay:10.37,2013-02-11 23:50:00,
2013-02-11 17:55:00,49.8,21.1,30.04,WSW,248,4.4,4.4,32,0.00,CLR,,0.00,WeatherDisplay:10.37,2013-02-11 23:55:00,
2013-02-11 18:00:00,49.5,21.5,30.04,WSW,248,3.4,3.4,33,0.00,CLR,,0.00,WeatherDisplay:10.37,2013-02-12 00:00:00,
2013-02-11 18:05:00,49.3,21.4,30.04,WNW,292,3.4,3.4,33,0.00,CLR,,0.00,WeatherDisplay:10.37,2013-02-12 00:05:00,
2013-02-11 18:10:00,49.3,21.4,30.04,SW,225,2.7,2.7,33,0.00,CLR,,0.00,WeatherDisplay:10.37,2013-02-12 00:10:00,
2013-02-11 18:15:00,49.1,21.2,30.05,WNW,292,2.3,2.4,33,0.00,CLR,,0.00,WeatherDisplay:10.37,2013-02-12 00:15:00,
2013-02-11 18:20:00,49.1,21.9,30.05,SW,225,2.3,2.3,34,0.00,CLR,,0.00,WeatherDisplay:10.37,2013-02-12 00:20:00,
2013-02-11 18:25:00,48.6,21.4,30.05,WSW,248,2.3,2.3,34,0.00,CLR,,0.00,WeatherDisplay:10.37,2013-02-12 00:25:00,
2013-02-11 18:30:00,48.7,21.6,30.05,WSW,248,2.5,2.5,34,0.00,CLR,,0.00,WeatherDisplay:10.37,2013-02-12 00:30:00,
2013-02-11 18:35:00,48.4,21.3,30.05,WSW,248,1.2,1.5,34,0.00,CLR,,0.00,WeatherDisplay:10.37,2013-02-12 00:35:00,
2013-02-11 18:40:00,48.4,21.3,30.05,SW,225,1.7,1.7,34,0.00,CLR,,0.00,WeatherDisplay:10.37,2013-02-12 00:40:00,
2013-02-11 18:45:00,48.0,21.6,30.05,West,270,0.0,0.8,35,0.00,CLR,,0.00,WeatherDisplay:10.37,2013-02-12 00:45:00,
2013-02-11 18:50:00,47.8,21.5,30.05,NW,315,0.0,0.5,35,0.00,CLR,,0.00,WeatherDisplay:10.37,2013-02-12 00:50:00,
2013-02-11 18:55:00,47.7,21.3,30.07,ENE,68,0.0,0.0,35,0.00,CLR,,0.00,WeatherDisplay:10.37,2013-02-12 00:55:00,
2013-02-11 19:00:00,47.7,22.0,30.07,WNW,292,0.0,0.0,36,0.00,CLR,,0.00,WeatherDisplay:10.37,2013-02-12 01:00:00,
2013-02-11 19:05:00,47.1,21.5,30.07,NE,45,0.0,0.0,36,0.00,CLR,,0.00,WeatherDisplay:10.37,2013-02-12 01:05:00,
2013-02-11 19:10:00,46.6,21.7,30.07,NE,45,0.0,0.0,37,0.00,CLR,,0.00,WeatherDisplay:10.37,2013-02-12 01:10:00,
2013-02-11 19:15:00,46.4,22.1,30.06,ENE,68,0.0,0.0,38,0.00,CLR,,0.00,WeatherDisplay:10.37,2013-02-12 01:15:00,
2013-02-11 19:20:00,46.2,22.0,30.06,NE,45,0.0,0.0,38,0.00,CLR,,0.00,WeatherDisplay:10.37,2013-02-12 01:20:00,
2013-02-11 19:25:00,45.9,21.7,30.06,NE,45,0.0,0.0,38,0.00,CLR,,0.00,WeatherDisplay:10.37,2013-02-12 01:25:00,
2013-02-11 19:30:00,45.5,21.9,30.06,SE,135,0.0,0.0,39,0.00,CLR,,0.00,WeatherDisplay:10.37,2013-02-12 01:30:00,
2013-02-11 19:35:00,45.1,22.2,30.06,ENE,68,0.0,0.0,40,0.00,CLR,,0.00,WeatherDisplay:10.37,2013-02-12 01:35:00,
2013-02-11 19:40:00,45.1,22.2,30.06,ENE,68,0.0,0.0,40,0.00,CLR,,0.00,WeatherDisplay:10.37,2013-02-12 01:40:00,
2013-02-11 19:45:00,44.6,22.3,30.06,NE,45,0.0,0.0,41,0.00,CLR,,0.00,WeatherDisplay:10.37,2013-02-12 01:45:00,
2013-02-11 19:50:00,44.4,22.2,30.06,NE,45,0.0,0.0,41,0.00,CLR,,0.00,WeatherDisplay:10.37,2013-02-12 01:50:00,
2013-02-11 19:55:00,44.1,22.4,30.07,WNW,292,0.0,0.0,42,0.00,CLR,,0.00,WeatherDisplay:10.37,2013-02-12 01:55:00,
2013-02-11 20:00:00,44.1,23.0,30.07,ENE,68,0.0,0.0,43,0.00,CLR,,0.00,WeatherDisplay:10.37,2013-02-12 02:00:00,
2013-02-11 20:05:00,43.5,22.5,30.07,NE,45,0.0,0.0,43,0.00,CLR,,0.00,WeatherDisplay:10.37,2013-02-12 02:05:00,
2013-02-11 20:10:00,43.7,23.2,30.07,East,90,0.0,0.0,44,0.00,CLR,,0.00,WeatherDisplay:10.37,2013-02-12 02:10:00,
2013-02-11 20:15:00,43.3,22.9,30.08,ENE,68,0.0,0.0,44,0.00,CLR,,0.00,WeatherDisplay:10.37,2013-02-12 02:15:00,
2013-02-11 20:20:00,43.2,22.7,30.08,East,90,0.0,0.0,44,0.00,CLR,,0.00,WeatherDisplay:10.37,2013-02-12 02:20:00,
2013-02-11 20:25:00,43.0,22.5,30.08,East,90,0.0,0.0,44,0.00,CLR,,0.00,WeatherDisplay:10.37,2013-02-12 02:25:00,
2013-02-11 20:30:00,42.8,22.4,30.08,East,90,0.0,0.0,44,0.00,CLR,,0.00,WeatherDisplay:10.37,2013-02-12 02:30:00,
2013-02-11 20:35:00,42.6,22.7,30.08,ENE,68,0.0,0.0,45,0.00,CLR,,0.00,WeatherDisplay:10.37,2013-02-12 02:35:00,
2013-02-11 20:40:00,42.6,22.7,30.08,ENE,68,0.0,0.0,45,0.00,CLR,,0.00,WeatherDisplay:10.37,2013-02-12 02:40:00,
2013-02-11 20:45:00,42.1,22.8,30.08,NNE,22,0.0,0.0,46,0.00,CLR,,0.00,WeatherDisplay:10.37,2013-02-12 02:45:00,
2013-02-11 20:50:00,41.9,22.6,30.08,ENE,68,0.0,0.0,46,0.00,CLR,,0.00,WeatherDisplay:10.37,2013-02-12 02:50:00,
2013-02-11 20:55:00,41.9,23.1,30.09,ENE,68,0.0,0.0,47,0.00,CLR,,0.00,WeatherDisplay:10.37,2013-02-12 02:55:00,
2013-02-11 21:00:00,41.5,22.8,30.09,SE,135,0.0,0.0,47,0.00,CLR,,0.00,WeatherDisplay:10.37,2013-02-12 03:00:00,
2013-02-11 21:05:00,41.4,23.1,30.09,ENE,68,0.0,0.0,48,0.00,CLR,,0.00,WeatherDisplay:10.37,2013-02-12 03:05:00,
2013-02-11 21:10:00,41.4,23.1,30.09,SSW,202,0.0,0.0,48,0.00,CLR,,0.00,WeatherDisplay:10.37,2013-02-12 03:10:00,
2013-02-11 21:15:00,41.2,23.0,30.10,SSW,202,0.0,0.0,48,0.00,CLR,,0.00,WeatherDisplay:10.37,2013-02-12 03:15:00,
2013-02-11 21:20:00,40.6,22.9,30.10,WSW,248,0.0,0.0,49,0.00,CLR,,0.00,WeatherDisplay:10.37,2013-02-12 03:20:00,
2013-02-11 21:25:00,40.5,23.3,30.10,NE,45,0.0,0.0,50,0.00,CLR,,0.00,WeatherDisplay:10.37,2013-02-12 03:25:00,
2013-02-11 21:30:00,40.5,23.7,30.10,East,90,0.0,0.0,51,0.00,CLR,,0.00,WeatherDisplay:10.37,2013-02-12 03:30:00,
2013-02-11 21:35:00,39.9,23.2,30.10,NW,315,0.0,0.0,51,0.00,CLR,,0.00,WeatherDisplay:10.37,2013-02-12 03:35:00,
2013-02-11 21:40:00,39.9,23.2,30.10,NW,315,0.0,0.0,51,0.00,CLR,,0.00,WeatherDisplay:10.37,2013-02-12 03:40:00,
2013-02-11 21:45:00,39.7,23.5,30.10,WNW,292,0.0,0.0,52,0.00,CLR,,0.00,WeatherDisplay:10.37,2013-02-12 03:45:00,
2013-02-11 21:50:00,39.7,24.0,30.10,West,270,0.0,0.0,53,0.00,CLR,,0.00,WeatherDisplay:10.37,2013-02-12 03:50:00,
2013-02-11 21:55:00,39.4,23.7,30.11,WNW,292,0.0,0.0,53,0.00,CLR,,0.00,WeatherDisplay:10.37,2013-02-12 03:55:00,
2013-02-11 22:00:00,39.4,23.7,30.11,SW,225,0.0,0.0,53,0.00,CLR,,0.00,WeatherDisplay:10.37,2013-02-12 04:00:00,
2013-02-11 22:05:00,39.4,24.1,30.11,SSW,202,0.0,0.0,54,0.00,CLR,,0.00,WeatherDisplay:10.37,2013-02-12 04:05:00,
2013-02-11 22:10:00,39.2,23.9,30.11,NNE,22,0.0,0.0,54,0.00,CLR,,0.00,WeatherDisplay:10.37,2013-02-12 04:10:00,
2013-02-11 22:15:00,39.0,24.2,30.11,ENE,68,0.0,0.0,55,0.00,CLR,,0.00,WeatherDisplay:10.37,2013-02-12 04:15:00,
2013-02-11 22:20:00,38.8,24.0,30.11,ENE,68,0.0,0.0,55,0.00,CLR,,0.00,WeatherDisplay:10.37,2013-02-12 04:20:00,
2013-02-11 22:25:00,38.5,23.7,30.11,NNE,22,0.0,0.0,55,0.00,CLR,,0.00,WeatherDisplay:10.37,2013-02-12 04:25:00,
2013-02-11 22:30:00,38.3,23.5,30.11,NE,45,0.0,0.0,55,0.00,CLR,,0.00,WeatherDisplay:10.37,2013-02-12 04:30:00,
2013-02-11 22:35:00,38.3,24.0,30.10,ENE,68,0.0,0.0,56,0.00,CLR,,0.00,WeatherDisplay:10.37,2013-02-12 04:35:00,
2013-02-11 22:40:00,37.9,23.6,30.10,WNW,292,0.0,0.0,56,0.00,CLR,,0.00,WeatherDisplay:10.37,2013-02-12 04:40:00,
2013-02-11 22:45:00,37.8,23.9,30.10,ESE,112,0.0,0.0,57,0.00,CLR,,0.00,WeatherDisplay:10.37,2013-02-12 04:45:00,
2013-02-11 22:50:00,37.8,23.9,30.10,NE,45,0.0,0.0,57,0.00,CLR,,0.00,WeatherDisplay:10.37,2013-02-12 04:50:00,
2013-02-11 22:55:00,37.6,23.7,30.11,SSE,158,0.0,0.0,57,0.00,CLR,,0.00,WeatherDisplay:10.37,2013-02-12 04:55:00,
2013-02-11 23:00:00,37.6,24.1,30.11,East,90,0.0,0.0,58,0.00,CLR,,0.00,WeatherDisplay:10.37,2013-02-12 05:00:00,
2013-02-11 23:05:00,37.0,23.6,30.11,WNW,292,0.0,0.0,58,0.00,CLR,,0.00,WeatherDisplay:10.37,2013-02-12 05:05:00,
2013-02-11 23:10:00,37.0,23.6,30.11,SSE,158,0.0,0.0,58,0.00,CLR,,0.00,WeatherDisplay:10.37,2013-02-12 05:10:00,
2013-02-11 23:15:00,37.2,23.8,30.11,ESE,112,0.0,0.0,58,0.00,CLR,,0.00,WeatherDisplay:10.37,2013-02-12 05:15:00,
2013-02-11 23:20:00,36.9,23.9,30.11,NNW,338,0.0,0.0,59,0.00,CLR,,0.00,WeatherDisplay:10.37,2013-02-12 05:20:00,
2013-02-11 23:25:00,36.9,23.9,30.11,NE,45,0.0,0.0,59,0.00,CLR,,0.00,WeatherDisplay:10.37,2013-02-12 05:25:00,
2013-02-11 23:30:00,36.5,23.9,30.11,ENE,68,0.0,0.0,60,0.00,CLR,,0.00,WeatherDisplay:10.37,2013-02-12 05:30:00,
2013-02-11 23:35:00,36.5,23.9,30.11,NE,45,0.0,0.0,60,0.00,CLR,,0.00,WeatherDisplay:10.37,2013-02-12 05:35:00,
2013-02-11 23:40:00,36.3,23.8,30.11,NE,45,0.0,0.0,60,0.00,CLR,,0.00,WeatherDisplay:10.37,2013-02-12 05:40:00,
2013-02-11 23:45:00,36.1,24.0,30.11,ESE,112,0.0,0.0,61,0.00,CLR,,0.00,WeatherDisplay:10.37,2013-02-12 05:45:00,
2013-02-11 23:50:00,36.1,24.0,30.11,WNW,292,0.0,0.0,61,0.00,CLR,,0.00,WeatherDisplay:10.37,2013-02-12 05:50:00,
2013-02-11 23:55:00,36.1,24.0,30.12,WSW,248,0.0,0.0,61,0.00,CLR,,0.00,WeatherDisplay:10.37,2013-02-12 05:55:00,